KD4LXC-1 Weather Reports


Display with metric or nautical units.
time (UTC)temp
F
wind
direction
speed
MPH
gust
MPH
rain 1hr
in
rain 24hr
in
rain mn
in
humidity
%
barometer
mb
20260506091426 70 0 0.0 0.0 0.00 0.00 0.00 19 887.0
20260506090217 70 0 0.0 0.0 0.00 0.00 0.00 18 887.0
20260506085008 70 356 0.0 0.0 0.00 0.00 0.00 18 886.6
20260506083759 70 354 0.0 0.0 0.00 0.00 0.00 17 886.6
20260506082549 70 0 0.0 0.0 0.00 0.00 0.00 17 886.9
20260506081341 70 13 0.0 0.0 0.00 0.00 0.00 17 886.9
20260506080132 71 3 0.0 0.0 0.00 0.00 0.00 16 886.8
20260506072505 71 46 0.0 0.0 0.00 0.00 0.00 16 887.0
20260506071256 71 44 0.0 0.0 0.00 0.00 0.00 15 887.0
20260506062419 72 70 0.0 0.0 0.00 0.00 0.00 15 887.5
20260506061210 72 44 0.0 0.0 0.00 0.00 0.00 15 887.4
20260506051125 71 58 0.0 0.0 0.00 0.00 0.00 15 887.2
20260506044707 71 15 0.0 0.0 0.00 0.00 0.00 15 887.3
20260506043458 71 0 0.0 0.0 0.00 0.00 0.00 15 887.5
20260506042249 71 0 0.0 0.0 0.00 0.00 0.00 15 887.3
20260506041040 71 35 0.0 0.0 0.00 0.00 0.00 15 887.4
20260506035831 72 356 0.0 0.0 0.00 0.00 0.00 14 886.9
20260506034622 72 7 0.0 0.0 0.00 0.00 0.00 14 886.7
20260506033413 72 3 0.0 0.0 0.00 0.00 0.00 14 886.5
20260506032204 72 13 0.0 0.0 0.00 0.00 0.00 13 886.4
20260506030955 73 7 0.0 0.0 0.00 0.00 0.00 13 886.2
20260506025746 73 0 0.0 0.0 0.00 0.00 0.00 13 885.5
20260506024537 73 0 0.0 0.0 0.00 0.00 0.00 12 885.9
20260506023328 74 0 0.0 0.0 0.00 0.00 0.00 12 885.7
20260506022119 74 356 0.0 0.0 0.00 0.00 0.00 11 885.7
20260506020910 75 354 0.0 0.0 0.00 0.00 0.00 11 885.5
20260506015701 76 0 0.0 0.0 0.00 0.00 0.00 10 885.5
20260506014452 77 10 0.0 0.0 0.00 0.00 0.00 9 885.2
20260506013243 78 7 0.0 0.0 0.00 0.00 0.00 9 885.2
20260506012034 79 6 0.0 0.0 0.00 0.00 0.00 8 885.2
20260506010825 79 0 0.0 0.0 0.00 0.00 0.00 7 885.1
20260506005616 80 0 0.0 0.0 0.00 0.00 0.00 7 884.8
20260506004407 81 6 0.0 0.0 0.00 0.00 0.00 6 884.9
20260506003158 82 0 0.0 0.0 0.00 0.00 0.00 5 884.9
20260506001949 83 3 0.0 0.0 0.00 0.00 0.00 4 884.6
20260506000740 84 352 0.0 0.0 0.00 0.00 0.00 2 884.1
20260505235531 86 353 0.0 0.0 0.00 0.00 0.00 1 884.2
20260505234323 87 0 0.0 0.0 0.00 0.00 0.00 0 884.2
20260505233113 88 356 0.0 0.0 0.00 0.00 0.00 100 884.4
20260505231904 88 336 0.0 0.0 0.00 0.00 0.00 100 884.5
20260505230655 89 226 0.0 0.0 0.00 0.00 0.00 100 884.7
20260505225446 89 217 0.0 0.0 0.00 0.00 0.00 100 884.5
20260505224237 90 263 0.0 0.0 0.00 0.00 0.00 100 884.7
20260505223028 91 353 0.0 0.0 0.00 0.00 0.00 100 884.8
20260505221819 91 338 0.0 0.0 0.00 0.00 0.00 100 885.0
20260505220610 91 246 0.0 0.0 0.00 0.00 0.00 100 885.1
20260505215400 91 266 0.0 0.0 0.00 0.00 0.00 100 885.1
20260505214151 92 243 0.0 0.0 0.00 0.00 0.00 100 885.5
20260505212942 92 339 0.0 0.0 0.00 0.00 0.00 100 885.4
20260505211733 92 194 0.0 0.0 0.00 0.00 0.00 100 885.3
20260505210524 92 169 0.0 0.0 0.00 0.00 0.00 100 885.6
20260505205315 93 203 0.0 0.0 0.00 0.00 0.00 100 885.6
20260505204106 94 188 0.0 0.0 0.00 0.00 0.00 100 885.5
20260505202857 93 183 0.0 0.0 0.00 0.00 0.00 100 885.9
20260505201648 93 205 0.0 0.0 0.00 0.00 0.00 100 885.9
20260505200439 92 211 0.0 0.0 0.00 0.00 0.00 100 886.1
20260505195230 92 231 0.0 0.0 0.00 0.00 0.00 100 886.2
20260505194021 92 187 0.0 0.0 0.00 0.00 0.00 100 886.2
20260505192812 92 217 0.0 0.0 0.00 0.00 0.00 100 886.3
20260505191603 92 225 0.0 0.0 0.00 0.00 0.00 0 886.5
20260505190354 92 263 0.0 0.0 0.00 0.00 0.00 0 886.6
20260505185145 92 183 0.0 0.0 0.00 0.00 0.00 0 886.6
20260505183936 92 191 0.0 0.0 0.00 0.00 0.00 1 886.8
20260505182727 92 166 0.0 0.0 0.00 0.00 0.00 0 886.9
20260505181518 93 176 0.0 0.0 0.00 0.00 0.00 1 887.0
20260505180309 93 180 0.0 0.0 0.00 0.00 0.00 2 887.0
20260505175100 92 190 0.0 0.0 0.00 0.00 0.00 3 887.4
20260505173851 92 150 0.0 0.0 0.00 0.00 0.00 3 887.3
20260505172642 91 186 0.0 0.0 0.00 0.00 0.00 4 887.3
20260505171433 91 257 0.0 0.0 0.00 0.00 0.00 4 887.6
20260505170224 91 191 0.0 0.0 0.00 0.00 0.00 5 887.6
20260505165015 90 159 0.0 0.0 0.00 0.00 0.00 6 887.3
20260505163806 90 243 0.0 0.0 0.00 0.00 0.00 7 887.4
20260505162557 89 274 0.0 0.0 0.00 0.00 0.00 9 887.4
20260505161348 88 127 0.0 0.0 0.00 0.00 0.00 10 887.4
20260505160139 87 204 0.0 0.0 0.00 0.00 0.00 11 887.3
20260505152514 84 221 0.0 0.0 0.00 0.00 0.00 15 887.3
20260505151303 82 224 0.0 0.0 0.00 0.00 0.00 16 887.1
20260505124714 70 179 0.0 0.0 0.00 0.00 0.00 30 886.3
20260505123505 71 179 0.0 0.0 0.00 0.00 0.00 31 886.4
20260505122256 71 278 0.0 0.0 0.00 0.00 0.00 31 886.1
20260505121050 71 257 0.0 0.0 0.00 0.00 0.00 31 885.9
20260505121047 71 257 0.0 0.0 0.00 0.00 0.00 31 885.9
20260505115838 71 222 0.0 0.0 0.00 0.00 0.00 30 885.9
20260505114629 71 186 0.0 0.0 0.00 0.00 0.00 30 885.6
20260505113420 71 257 0.0 0.0 0.00 0.00 0.00 31 885.6
20260505112211 71 248 0.0 0.0 0.00 0.00 0.00 31 885.6
20260505111003 71 350 0.0 0.0 0.00 0.00 0.00 31 885.4
20260505102126 72 277 0.0 0.0 0.00 0.00 0.00 33 885.6
20260505100917 72 224 0.0 0.0 0.00 0.00 0.00 33 885.6
20260505095709 71 205 0.0 0.0 0.00 0.00 0.00 34 885.6
20260505094606 71 207 0.0 0.0 0.00 0.00 0.00 34 885.5
20260505094459 71 207 0.0 0.0 0.00 0.00 0.00 34 885.5
20260505093250 71 219 0.0 0.0 0.00 0.00 0.00 35 885.4
20260505092041 71 217 0.0 0.0 0.00 0.00 0.00 35 885.4